Weather History for Miami, FL

Change the Weather History Date:

Tuesday, November 19, 2013

  Actual Average Record
Temperature  
Mean Temperature 80 °F 74 °F  
Max Temperature 87 °F 81 °F 89 °F (1986)
Min Temperature 73 °F 68 °F 44 °F (1951)
Degree Days  
Heating Degree Days 0 0  
Month to date heating degree days 0 0  
Since 1 July heating degree days 0 0  
Cooling Degree Days 15 9  
Month to date cooling degree days 265 205  
Year to date cooling degree days 4435 4277  
Growing Degree Days 30 (Base 50)    
Moisture  
Dew Point 71 °F    
Average Humidity 76    
Maximum Humidity 100    
Minimum Humidity 51    
Precipitation  
Precipitation 0.40 in 0.09 in 6.78 in (1959)
Month to date precipitation 1.25 2.32  
Year to date precipitation 61.27 58.91  
Snow  
Snow 0.00 in - - ()
Month to date snowfall 0.0  
Since 1 July snowfall 0.0  
Since 1 September snowfall 0.0  
Snow Depth 0.00 in    
Sea Level Pressure  
Sea Level Pressure 29.92 in    
Wind  
Wind Speed 3 mph (WSW)    
Max Wind Speed 16 mph    
Max Gust Speed 21 mph    
Visibility 9 miles    
Events Rain , Thunderstorm    
T = Trace of Precipitation, MM = Missing Value Source: NWS Daily Summary

Daily Weather History Graph

Daily Weather History Graph

Search for Another Location

Airport:

Trip Planner

Search our weather history database for the weather conditions in past years. The results will help you decide how hot, cold, wet, or windy it might be!

Date:

Astronomy

Nov. 19, 2013 Rise Set
Actual Time 6:42 AM EST 5:31 PM EST
Civil Twilight 6:17 AM EST 5:55 PM EST
Nautical Twilight 5:49 AM EST 6:23 PM EST
Astronomical Twilight 5:22 AM EST 6:51 PM EST
Moon 7:22 PM EST (11/19) 8:18 AM EST (11/19)
Length of Visible Light 11h 37m
Length of Day
10h 48m
Waning Gibbous, 96% of the Moon is Illuminated
Nov 19
Waning Gibbous
Nov 25
Last Quarter
Dec 2
New
Dec 9
First Quarter
Dec 17
Full

Hourly Weather History & Observations

Time (EST) Temp. Heat Index Dew Point Humidity Pressure Visibility Wind Dir Wind Speed Gust Speed Precip Events Conditions
12:53 AM 75.9 °F - 70.0 °F 82% 29.93 in 10.0 mi Calm Calm - N/A   Overcast
1:53 AM 75.9 °F - 70.0 °F 82% 29.91 in 10.0 mi WSW 4.6 mph - N/A   Mostly Cloudy
2:53 AM 75.0 °F - 70.0 °F 84% 29.91 in 10.0 mi Calm Calm - N/A   Overcast
3:53 AM 73.9 °F - 69.1 °F 85% 29.90 in 10.0 mi Calm Calm - N/A   Mostly Cloudy
4:53 AM 75.0 °F - 69.1 °F 82% 29.90 in 10.0 mi SW 5.8 mph - N/A   Mostly Cloudy
5:53 AM 73.9 °F - 69.1 °F 85% 29.91 in 10.0 mi Calm Calm - N/A   Mostly Cloudy
6:53 AM 73.0 °F - 70.0 °F 90% 29.92 in 10.0 mi Calm Calm - N/A   Scattered Clouds
7:53 AM 75.0 °F - 70.0 °F 84% 29.94 in 10.0 mi WNW 5.8 mph - N/A   Scattered Clouds
8:53 AM 78.1 °F - 70.0 °F 76% 29.95 in 10.0 mi West 5.8 mph - N/A   Mostly Cloudy
9:53 AM 78.1 °F - 71.1 °F 79% 29.96 in 10.0 mi WNW 4.6 mph - N/A   Mostly Cloudy
10:53 AM 80.1 °F 83.6 °F 71.1 °F 74% 29.95 in 10.0 mi Variable 3.5 mph - N/A   Mostly Cloudy
11:53 AM 81.0 °F 84.4 °F 70.0 °F 69% 29.94 in 10.0 mi NW 5.8 mph - N/A   Mostly Cloudy
12:53 PM 84.9 °F 89.4 °F 70.0 °F 61% 29.90 in 10.0 mi Variable 4.6 mph - N/A   Mostly Cloudy
1:53 PM 86.0 °F 88.2 °F 66.0 °F 51% 29.88 in 10.0 mi NW 6.9 mph - N/A   Scattered Clouds
2:53 PM 86.0 °F 89.4 °F 68.0 °F 55% 29.87 in 10.0 mi Variable 3.5 mph - N/A   Scattered Clouds
3:53 PM 81.0 °F 84.9 °F 71.1 °F 72% 29.87 in 10.0 mi SE 10.4 mph - N/A   Mostly Cloudy
4:53 PM 75.9 °F - 70.0 °F 82% 29.88 in 10.0 mi East 6.9 mph - 0.00 in Rain Light Rain
5:53 PM 75.0 °F - 72.0 °F 90% 29.90 in 7.0 mi SSW 4.6 mph - 0.17 in   Overcast
6:18 PM 73.4 °F - 71.6 °F 94% 29.91 in 7.0 mi SW 8.1 mph - 0.10 in Rain Heavy Rain
6:33 PM 73.4 °F - 71.6 °F 94% 29.92 in 7.0 mi SSW 3.5 mph - 0.14 in Rain , Thunderstorm Light Thunderstorms and Rain
6:53 PM 73.9 °F - 71.1 °F 91% 29.93 in 10.0 mi South 3.5 mph - 0.14 in Rain , Thunderstorm Light Thunderstorms and Rain
7:18 PM 73.4 °F - 71.6 °F 94% 29.93 in 10.0 mi Calm Calm - 0.00 in Rain Light Rain
7:53 PM 73.9 °F - 72.0 °F 93% 29.95 in 9.0 mi SSW 4.6 mph - 0.03 in Rain Light Rain
8:53 PM 73.9 °F - 72.0 °F 93% 29.95 in 10.0 mi Calm Calm - 0.05 in Rain Light Rain
9:50 PM 73.4 °F - 71.6 °F 94% 29.96 in 10.0 mi Calm Calm - 0.01 in   Overcast
9:53 PM 73.9 °F - 72.0 °F 93% 29.96 in 10.0 mi Calm Calm - 0.01 in   Overcast
10:23 PM 73.4 °F - 73.4 °F 100% 29.96 in 5.0 mi Calm Calm - 0.00 in Rain Light Rain
10:53 PM 73.9 °F - 73.0 °F 97% 29.96 in 6.0 mi Calm Calm - 0.00 in   Overcast
11:44 PM 73.4 °F - 73.4 °F 100% 29.95 in 6.0 mi Calm Calm - N/A   Mostly Cloudy
11:53 PM 73.9 °F - 73.0 °F 97% 29.95 in 6.0 mi Calm Calm - N/A   Mostly Cloudy